Papa, Hungary

3:49 AM CEST on April 28, 2017 (GMT +0200)
Papa

Weather History for LHPA - October, 2011

Change the Weather History Date:

Sunday, October 23, 2011

  Actual Average Record
Temperature  
Mean Temperature 45 °F -  
Max Temperature 48 °F - - ()
Min Temperature 42 °F - - ()
Degree Days  
Heating Degree Days 20    
Moisture  
Dew Point 44 °F    
Average Humidity 94    
Maximum Humidity 100    
Minimum Humidity 76    
Precipitation  
Precipitation 0.00 in - - ()
Sea Level Pressure  
Sea Level Pressure 30.23 in    
Wind  
Wind Speed 2 mph ()    
Max Wind Speed 7 mph    
Max Gust Speed -    
Visibility 2.7 miles    
Events Rain    
T = Trace of Precipitation, MM = Missing Value Source: Averaged Metar Reports

Daily Weather History Graph

Daily Weather History Graph

Search for Another Location

Airport or City:

Trip Planner

Search our weather history database for the weather conditions in past years. The results will help you decide how hot, cold, wet, or windy it might be!

Date:

Astronomy

Oct. 23, 2011 Rise Set
Actual Time 7:19 AM CEST 5:48 PM CEST
Civil Twilight 6:47 AM CEST 6:20 PM CEST
Nautical Twilight 6:12 AM CEST 6:55 PM CEST
Astronomical Twilight 5:36 AM CEST 7:31 PM CEST
Moon 2:50 AM CEST (10/23) 3:42 PM CEST (10/23)
Length of Visible Light 11h 32m
Length of Day
10h 29m
Waning Crescent, 17% of the Moon is Illuminated
Oct 23
Waning Crescent
Oct 26
New
Nov 2
First Quarter
Nov 10
Full
Nov 18
Last Quarter

Hourly Weather History & Observations

Time (CEST) Temp. Windchill Dew Point Humidity Pressure Visibility Wind Dir Wind Speed Gust Speed Precip Events Conditions
12:15 AM 44.6 °F - 37.4 °F 76% 30.27 in 6.2 mi Calm Calm - N/A   Mostly Cloudy
12:45 AM 42.8 °F - 39.2 °F 87% 30.27 in 6.2 mi Calm Calm - N/A   Mostly Cloudy
1:15 AM 44.6 °F 42.3 °F 39.2 °F 81% 30.27 in 3.7 mi East 4.5 mph - N/A   Overcast
1:45 AM 42.8 °F - 39.2 °F 87% 30.24 in 3.7 mi East 2.2 mph - N/A   Overcast
2:15 AM 42.8 °F - 41.0 °F 93% 30.24 in 3.7 mi Calm Calm - N/A   Mostly Cloudy
2:45 AM 42.8 °F - 41.0 °F 93% 30.24 in 3.7 mi Calm Calm - N/A   Mostly Cloudy
3:15 AM 42.8 °F 40.2 °F 41.0 °F 93% 30.24 in 3.7 mi ENE 4.5 mph - N/A   Mostly Cloudy
3:45 AM - - - N/A% - 6.2 mi Variable 4.5 mph - N/A   Mostly Cloudy
4:15 AM 42.8 °F - 41.0 °F 93% 30.24 in 3.7 mi East 2.2 mph - N/A   Mostly Cloudy
4:45 AM 42.8 °F - 42.8 °F 100% 30.24 in 3.7 mi East 2.2 mph - N/A   Mostly Cloudy
5:15 AM 42.8 °F - 42.8 °F 100% 30.24 in 3.7 mi ENE 2.2 mph - N/A   Mostly Cloudy
6:15 AM 42.8 °F - 41.0 °F 93% 30.24 in 2.5 mi ENE 2.2 mph - N/A   Mostly Cloudy
6:45 AM - - - N/A% - 3.1 mi Variable 4.5 mph - N/A   Overcast
7:15 AM 42.8 °F - 41.0 °F 93% 30.24 in 2.5 mi NE 2.2 mph - N/A   Mostly Cloudy
7:45 AM 42.8 °F - 42.8 °F 100% 30.24 in 2.5 mi NE 2.2 mph - N/A   Mostly Cloudy
8:15 AM 42.8 °F - 42.8 °F 100% 30.24 in 2.5 mi NE 2.2 mph - N/A   Mostly Cloudy
8:27 AM - - - N/A% - 3.1 mi Variable 4.5 mph - N/A   Overcast
8:45 AM 44.6 °F - 42.8 °F 93% 30.24 in 2.5 mi NE 2.2 mph - N/A   Mostly Cloudy
9:15 AM 44.6 °F 42.3 °F 42.8 °F 93% 30.24 in 2.2 mi NE 4.5 mph - N/A   Mostly Cloudy
9:45 AM - - - N/A% - 1.9 mi ENE 6.7 mph - N/A   Overcast
10:15 AM 44.6 °F 42.3 °F 42.8 °F 93% 30.24 in 1.9 mi NE 4.5 mph - N/A   Overcast
10:45 AM 44.6 °F 42.3 °F 42.8 °F 93% 30.24 in 1.9 mi NE 4.5 mph - N/A   Overcast
11:15 AM 46.4 °F 44.4 °F 44.6 °F 93% 30.24 in 1.9 mi NE 4.5 mph - N/A   Overcast
11:45 AM 46.4 °F 44.4 °F 44.6 °F 93% 30.24 in 1.9 mi NNE 4.5 mph - N/A   Overcast
12:15 PM 46.4 °F 44.4 °F 44.6 °F 93% 30.24 in 1.9 mi NE 4.5 mph - N/A   Overcast
12:45 PM - - - N/A% - 3.1 mi ENE 6.7 mph - N/A   Overcast
1:15 PM 48.2 °F - 44.6 °F 87% 30.24 in 1.9 mi North 4.5 mph - N/A   Overcast
1:45 PM 48.2 °F - 44.6 °F 87% 30.24 in 3.1 mi North 4.5 mph - N/A   Light Drizzle
2:15 PM 48.2 °F - 46.4 °F 93% 30.21 in 3.1 mi ENE 6.7 mph - N/A   Light Drizzle
2:45 PM 48.2 °F - 46.4 °F 93% 30.21 in 3.1 mi ENE 6.7 mph - N/A   Light Drizzle
3:15 PM 48.2 °F - 46.4 °F 93% 30.21 in 3.1 mi ENE 6.7 mph - N/A   Overcast
3:45 PM - - - N/A% - 3.1 mi ENE 6.7 mph - N/A   Overcast
4:15 PM 48.2 °F - 46.4 °F 93% 30.21 in 3.1 mi ENE 4.5 mph - N/A   Overcast
4:45 PM 48.2 °F - 46.4 °F 93% 30.21 in 1.9 mi ENE 4.5 mph - N/A   Overcast
5:15 PM 48.2 °F - 46.4 °F 93% 30.21 in 1.9 mi ENE 2.2 mph - N/A   Overcast
5:45 PM 48.2 °F - 46.4 °F 93% 30.21 in 1.6 mi ENE 2.2 mph - N/A   Light Drizzle
6:15 PM 48.2 °F - 46.4 °F 93% 30.21 in 1.2 mi Calm Calm - N/A   Light Drizzle
6:45 PM - - - N/A% - 3.1 mi East 6.7 mph - N/A   Overcast
7:15 PM 46.4 °F - 46.4 °F 100% 30.21 in 1.9 mi Calm Calm - N/A   Overcast
7:45 PM 48.2 °F - 46.4 °F 93% 30.21 in 1.9 mi Calm Calm - N/A   Overcast
8:15 PM 46.4 °F - 46.4 °F 100% 30.21 in 1.9 mi Calm Calm - N/A   Overcast
8:45 PM 46.4 °F - 46.4 °F 100% 30.21 in 1.9 mi Calm Calm - N/A   Overcast
9:15 PM 46.4 °F - 46.4 °F 100% 30.21 in 1.9 mi Calm Calm - N/A   Overcast
9:45 PM 46.4 °F - 46.4 °F 100% 30.21 in 1.9 mi Calm Calm - N/A   Overcast
10:15 PM 46.4 °F - 46.4 °F 100% 30.21 in 1.6 mi NNE 2.2 mph - N/A   Overcast
10:45 PM 46.4 °F - 46.4 °F 100% 30.21 in 1.2 mi Calm Calm - N/A   Overcast
11:15 PM 46.4 °F - 46.4 °F 100% 30.21 in 0.6 mi Calm Calm - N/A Rain Light Rain
11:45 PM 46.4 °F - 46.4 °F 100% 30.18 in 0.6 mi Calm Calm - N/A Rain Light Rain